JF7ELG-13 Weather Reports


time (UTC)temp
C
wind
direction
speed
KPH
gust
KPH
rain 1hr
cm
rain 24hr
cm
rain mn
cm
humidity
%
barometer
mb
20260505061823 17 35 1.6 6.4 0.00 0.00 0.00 58 1015.5
20260505060356 17 316 1.6 6.4 0.00 0.00 0.00 58 1015.5
20260505054837 17 27 1.6 6.4 0.00 0.00 0.00 57 1015.4
20260505053350 18 299 1.6 4.8 0.00 0.00 0.00 54 1015.3
20260505051849 17 292 1.6 4.8 0.00 0.00 0.00 53 1015.5
20260505050321 17 300 1.6 6.4 0.00 0.00 0.00 53 1015.6
20260505040321 17 293 1.6 8.0 0.00 0.00 0.00 55 1015.6
20260505034827 16 283 1.6 6.4 0.00 0.00 0.00 56 1015.7
20260505033334 17 307 0.0 9.7 0.00 0.00 0.00 57 1015.5
20260505031839 17 240 3.2 6.4 0.00 0.00 0.00 53 1015.6
20260505030329 23 95 0.0 1.6 0.00 0.00 0.00 32 1015.6
20260505024833 22 97 0.0 1.6 0.00 0.00 0.00 34 1015.6
20260505023326 22 94 0.0 1.6 0.00 0.00 0.00 34 1015.5
20260505021846 22 84 0.0 1.6 0.00 0.00 0.00 35 1015.5
20260505020316 22 107 1.6 4.8 0.00 0.00 0.00 37 1015.4
20260505014830 22 93 0.0 1.6 0.00 0.00 0.00 37 1015.7
20260505013325 21 93 0.0 1.6 0.00 0.00 0.00 39 1015.6
20260505011840 21 102 0.0 1.6 0.00 0.00 0.00 37 1015.7
20260505010334 21 91 0.0 1.6 0.00 0.00 0.00 39 1015.6
20260505004818 21 81 0.0 1.6 0.00 0.00 0.00 41 1015.4
20260505003355 20 100 0.0 3.2 0.00 0.00 0.00 42 1015.3
20260505001836 20 90 0.0 1.6 0.00 0.00 0.00 44 1015.2
20260505000346 18 91 0.0 3.2 0.00 0.00 0.00 45 1015.0
20260504234845 18 110 0.0 1.6 0.00 0.00 0.00 45 1014.8
20260504233334 18 71 0.0 1.6 0.00 0.00 0.00 47 1014.8
20260504231841 17 93 0.0 1.6 0.00 0.00 0.00 49 1014.8
20260504230331 16 101 0.0 4.8 0.00 0.00 0.00 51 1014.7
20260504224836 15 131 0.0 3.2 0.00 0.00 0.00 53 1014.5
20260504223328 15 110 0.0 3.2 0.00 0.00 0.00 57 1014.3
20260504221831 14 94 0.0 3.2 0.00 0.00 0.00 58 1013.9
20260504220324 13 101 0.0 4.8 0.00 0.00 0.00 60 1013.7
20260504214847 12 112 0.0 6.4 0.00 0.00 0.00 61 1013.5
20260504213324 12 99 0.0 3.2 0.00 0.00 0.00 63 1013.5
20260504211827 12 88 0.0 4.8 0.00 0.00 0.00 63 1013.0
20260504210347 11 116 0.0 3.2 0.00 0.00 0.00 65 1013.1
20260504204843 11 101 0.0 3.2 0.00 0.00 0.00 66 1013.0
20260504203353 11 107 0.0 8.0 0.00 0.00 0.00 65 1012.5
20260504201830 11 111 0.0 1.6 0.00 0.00 0.00 64 1012.0
20260504200325 10 119 0.0 1.6 0.00 0.00 0.00 64 1011.6
20260504194823 10 112 0.0 3.2 0.00 0.10 0.00 64 1011.2
20260504193331 10 108 0.0 3.2 0.00 0.10 0.00 65 1011.1
20260504191836 10 94 0.0 1.6 0.00 0.10 0.00 65 1011.0
20260504190330 10 83 0.0 1.6 0.00 0.10 0.00 65 1010.6
20260504184833 10 105 0.0 4.8 0.00 0.20 0.00 65 1010.4
20260504183331 10 104 0.0 1.6 0.00 0.20 0.00 67 1010.3
20260504181834 10 105 0.0 4.8 0.00 0.20 0.00 66 1010.0
20260504180330 10 126 0.0 4.8 0.00 0.20 0.00 66 1009.8
20260504174835 10 107 0.0 3.2 0.00 0.20 0.00 65 1009.4
20260504173328 10 111 0.0 1.6 0.00 0.20 0.00 65 1009.2
20260504171825 11 83 0.0 3.2 0.00 0.20 0.00 64 1008.8
20260504170315 11 113 0.0 9.7 0.00 0.20 0.00 64 1008.4
20260504160329 11 118 0.0 9.7 0.00 0.20 0.00 60 1006.2
20260504150321 12 106 0.0 3.2 0.00 0.20 0.00 64 1004.9
20260504140316 13 116 1.6 9.7 0.00 0.20 0.00 60 1002.6
20260504130331 15 133 1.6 8.0 0.00 0.20 0.05 54 999.6
20260504110318 16 120 3.2 17.7 0.00 0.20 0.05 56 996.8
20260504100323 17 109 1.6 12.9 0.00 0.20 0.05 57 996.1
20260504081837 18 82 3.2 19.3 0.00 0.20 0.05 54 994.7
20260504080349 19 127 4.8 17.7 0.00 0.20 0.05 54 994.3
20260504070329 20 84 3.2 14.5 0.00 0.20 0.05 56 993.5